CANX-4

Last updated on Tue Sep 16 2025 00:03:48 GMT+0000 (Coordinated Universal Time)

1 40055U 14034C 25258.56097019 .00000946 00000+0 13115-3 0 9997 2 40055 98.3495 118.2798 0013108 167.6588 192.4947 14.80427539603888
UTC large
Height (km)
Speed (km/s)
/
Latitude / Longitude
Inclination (degrees)
Orbital Period (minutes)
Azimuth
Elevation
Range (km)
Doppler Factor

Next 0 passes for location: London (51.5072 / 0.1276)

Sorry there are no passes over London.